COSMOS 1275 DEB, 12697

Orbit data source: Space-Track

COSMOS 1275 DEB, 12697 is space debris in LEO originally from a launch on Thu, 04 Jun 1981 UTC launched from the Plesetsk Missile And Space Complex (PKMTR). Debris objects in space refer to the collection of defunct objects orbiting the Earth. Examples of debris include non-operational satellites, rocket bodies, and fragments generated from explosions, collisions, or faulty payload assembly.

Loading next visibility...
Identifier
12697, 1981-053AR
Orbit
LEO
Country
Flag of CISCIS
Related business
Manufacturer
Unknown
Mission
Spacecraft
Bus & Motor
Unknown
Mass
Unknown
Launch date (UTC)
1981-06-04 (44 years ago)
Launch vehicle
Unknown
Launch site
Plesetsk Missile And Space Complex (PKMTR)
Object type
Payload
Rocket body
Debris
Shape & HBR
Unknown shape, 0.1 m
Radar Cross Section
Medium (>0.1 m² and <1 m²)

Expand to show TLE details & history
Last TLE update: 22 hours ago

TLE from 22 hours ago
0 COSMOS 1275 DEB
1 12697U 81053AR  25308.20584663  .00000930  00000-0  83467-3 0  9997
2 12697  82.7796 190.9942 0084623  87.1205  33.5523 13.81581789215725
Epoch: 2025-11-04T04:56Z
TLE epoch observation values (Epoch: 2025-11-04T04:56:25.148Z)
Latitude
58.14109°
Longitude
-118.5072°
Altitude
916.495 km
Speed
7.425 km/s
True Right ascension
23h 57m 10s
True Declination
57° 59' 24"
Sunlit
Object was in full shadow at epoch
Visualization orbit readout
Latitude
Unknown
Longitude
Unknown
Altitude
Unknown
Speed
Unknown
Apparent Right ascension
Unknown
Apparent Declination
Unknown
Sunlit
N/A
Visualization observer readout
Local Sidereal Time
22:53:24
Azimuth
Unknown
Elevation
Unknown
Doppler factor
Unknown
Orbital elements
Apogee altitude
1,017.486 km
Perigee altitude
893.369 km
Semi-major axis
7,333.564 km
Eccentricity
0.00846
Inclination
82.7796°
RAAN
190.9942°
Arg. of periapsis
87.1205°
True anomaly
34.09301°
Mean anomaly
33.5523°
Eccentric anomaly
33.82218°
Mean motion
3.45597 °/min
Orbital period
104.17 mins
BSTAR
0.00083467
Loading maneuver chart data...
Computing Atmospheric mass density...
Loading historical data...
Loading historical data...
Loading historical data...
Loading historical data...
Loading historical data...
Loading historical data...
Loading historical data...

Documentation

Showing up to 5 results
|